Temp
69 68 67 67 66 65 64 64 67 67 66 67 67 65 64 64 64 62 62 62 60 60
64 63 63 63 64 63 63 67 66 65 66 66 67 66 65 63 62 62 61 61 60 59
62 62 62 62 63 61 61 62 64 63 63 65 65 65 64 63 62 61 61 62 61 60
62 62 61 60 60 60 62 63 65 64 64 62 62 62 62 62 63 62 61 61 61 61
61 61 60 60 60 60 61 63 65 65 65 66 65 63 62 62 61 61 60 61 60 60
59 59 59 59 60 59 59 60 60 62 63 64 62 61 60 60 61 59 58 58 58 58
56 56 56 57 57 57 59 57 58 58 59 59 60 60 61 61 56 55 57 58 56 56
57 56 57 55 54 54 54 54 55 55 55 55 56 61 53 53 51 50 51 52 54 55
56 55 52 51 50 50 49 49 49 50 50 49 56 49 49 49 47 47 47 46 49 50
54 52 49 49 48 46 44 44 44 45 46 46 46 47 46 48 44 44 44 45 46 49
50 48 47 45 43 42 41 40 41 42 42 43 46 46 44 46 45 44 44 44 45 45
47 45 44 41 39 39 39 40 40 42 42 41 42 44 43 43 42 43 45 45 45 45
43 41 40 37 37 37 38 40 43 42 42 43 42 43 42 42 43 41 42 44 45 46
39 37 38 37 38 40 40 40 40 40 41 42 43 43 42 42 42 42 43 44 45 47
MSLP
1007.87 1008.29 1008.57 1008.81 1008.93 1009.19 1009.38 1009.24 1009.06 1009.15 1009.54 1009.53 1009.49 1009.99 1010.51 1010.43 1010.53 1010.86 1011.13 1011.58 1012.19 1012.52
1009.06 1009.57 1009.51 1009.47 1009.45 1009.77 1009.99 1009.53 1009.36 1009.24 1009.44 1009.45 1009.56 1009.67 1010.04 1010.14 1010.51 1010.70 1010.95 1011.16 1011.46 1011.92
1010.33 1010.79 1010.56 1010.30 1010.40 1010.14 1010.16 1009.96 1009.77 1009.86 1009.76 1009.76 1010.07 1010.13 1010.13 1010.20 1010.33 1010.49 1010.68 1010.74 1010.95 1011.13
1010.82 1010.62 1010.56 1010.58 1010.66 1010.41 1010.26 1010.29 1010.32 1010.23 1010.24 1010.45 1010.23 1010.23 1010.11 1010.50 1010.53 1010.72 1010.47 1010.61 1010.78 1010.75
1010.88 1010.95 1010.88 1011.05 1011.12 1010.92 1010.76 1010.68 1010.81 1010.65 1010.42 1010.33 1010.69 1010.41 1010.81 1010.45 1010.56 1010.70 1010.73 1010.53 1010.76 1010.65
1011.75 1011.95 1011.26 1011.20 1011.23 1011.08 1011.16 1011.18 1011.26 1011.29 1011.05 1010.92 1010.74 1010.58 1010.43 1010.54 1010.31 1010.35 1010.33 1010.23 1010.61 1010.74
1012.18 1012.34 1012.02 1012.02 1011.79 1011.99 1011.69 1011.64 1011.59 1011.54 1011.35 1011.23 1010.99 1010.85 1010.68 1010.44 1010.41 1010.54 1010.51 1010.44 1010.28 1010.21
1012.81 1012.84 1012.81 1012.76 1012.70 1012.69 1012.63 1012.49 1012.03 1011.58 1011.32 1011.13 1011.01 1010.91 1010.77 1010.64 1010.66 1010.77 1010.68 1010.50 1010.34 1010.17
1013.14 1013.28 1013.17 1013.22 1013.17 1013.15 1013.10 1012.74 1012.66 1012.47 1012.24 1011.72 1011.66 1011.29 1011.00 1010.92 1010.81 1010.86 1010.48 1010.30 1010.24 1010.07
1013.41 1013.60 1013.84 1013.80 1013.88 1013.87 1013.82 1013.56 1013.11 1012.74 1012.63 1012.62 1012.04 1011.48 1011.14 1010.92 1010.67 1010.63 1010.65 1010.46 1010.09 1009.65
1014.26 1014.41 1014.40 1014.23 1014.17 1013.94 1013.76 1013.72 1013.62 1013.06 1012.49 1011.96 1011.44 1010.95 1010.69 1010.72 1010.66 1010.38 1010.09 1009.76 1009.40 1009.02
1014.84 1014.85 1014.71 1014.47 1014.33 1014.17 1013.69 1013.25 1012.70 1012.35 1012.00 1011.70 1011.19 1010.82 1010.61 1010.38 1010.03 1009.67 1009.20 1008.95 1008.73 1008.43
1015.61 1015.47 1015.13 1014.87 1014.50 1014.12 1013.68 1013.12 1012.81 1012.40 1011.92 1011.45 1011.00 1010.56 1010.24 1009.96 1009.66 1009.18 1008.80 1008.46 1008.09 1007.80
1015.62 1015.40 1014.95 1014.70 1014.32 1013.90 1013.53 1013.11 1012.80 1012.38 1011.79 1011.20 1010.62 1010.04 1009.71 1009.45 1009.20 1008.76 1008.29 1007.84 1007.47 1007.13
Wind_Speed
6 4 4 3 3 3 2 2 3 4 4 6 6 7 6 3 4 5 5 7 6 4
9 10 7 8 8 4 6 5 6 5 6 4 6 7 6 4 5 5 5 6 6 5
7 6 6 6 7 7 6 7 8 8 7 4 3 2 3 4 5 5 5 5 7 6
6 6 6 7 6 6 6 7 7 7 6 5 5 6 5 5 6 6 6 5 6 7
8 7 7 7 5 5 6 5 6 7 6 5 6 5 6 4 5 5 6 6 6 8
8 8 8 8 7 7 5 3 3 3 4 5 6 6 5 4 4 5 5 4 4 5
8 7 8 7 8 8 7 7 6 5 5 5 5 5 6 4 4 4 4 5 5 5
4 5 6 7 7 7 7 7 7 8 8 7 6 5 5 4 4 4 4 3 4 5
6 5 6 7 7 7 7 8 7 8 7 7 6 5 6 5 5 5 5 6 5 5
7 8 7 6 6 6 6 5 6 7 7 6 6 8 2 6 4 5 5 6 7 9
8 7 6 6 6 7 4 5 6 7 6 8 8 9 9 12 11 9 9 9 9 9
9 9 9 9 9 8 9 10 9 9 10 11 11 15 16 12 7 8 9 8 9 10
6 7 8 6 8 7 6 9 9 11 10 13 12 14 13 12 6 8 7 9 9 13
7 8 6 8 8 9 9 10 10 10 10 11 11 11 12 14 7 7 8 7 7 7
Wind_Direction
52 68 66 65 40 19 339 270 267 227 228 205 182 188 206 182 184 183 201 206 211 192
45 38 54 55 55 40 3 344 276 259 241 221 196 189 188 190 202 191 203 217 216 207
71 58 46 56 48 45 29 18 24 23 12 13 341 297 216 223 238 201 226 224 219 218
51 61 60 49 40 38 20 12 16 13 11 339 331 338 348 317 297 277 262 254 245 252
35 29 34 27 19 29 26 9 354 350 359 6 347 13 312 319 308 297 276 265 266 265
26 10 10 2 354 355 351 347 335 325 311 309 309 320 318 291 292 301 315 329 330 312
15 1 0 348 350 339 338 329 323 309 299 294 295 292 283 321 354 337 322 311 302 296
8 3 6 9 9 6 12 359 356 1 358 359 349 348 3 1 355 335 316 297 288 277
21 26 25 21 21 28 18 12 10 6 1 1 353 21 12 14 351 332 332 316 295 283
36 40 33 24 17 8 1 352 353 350 345 321 316 321 333 348 338 314 283 280 280 284
34 29 13 14 8 355 348 336 314 306 297 301 301 306 286 287 294 280 267 258 264 261
20 8 358 351 341 329 325 320 315 312 309 302 298 296 293 292 290 286 285 291 287 286
11 351 327 316 324 316 317 317 316 310 304 300 298 294 292 294 295 289 287 284 278 272
347 334 333 335 327 323 316 309 304 299 298 293 284 281 277 282 287 281 282 277 279 274